Location: NJAA Observatory
(40.6819°N, 74.8979°W)
Time: 02:10:07
(UTC-05:00)

Vanguard 1 - All Passes

Search period start: 01 February 2015 00:00
Search period end: 11 February 2015 00:00
Orbit: 653 x 3833 km, 34.2° (Epoch: 30 January)

Date Brightness Start Highest point End Pass type
(mag) Time Alt. Az. Time Alt. Az. Time Alt. Az.
01 Feb - 01:21:20 10° S 01:32:46 18° SE 01:43:10 10° ESE visible
01 Feb - 03:39:47 10° SW 03:57:00 40° SSE 04:07:37 10° E visible
01 Feb - 06:04:51 10° WSW 06:19:46 58° S 06:27:45 10° E visible
01 Feb - 08:30:55 10° W 08:40:50 49° SSW 08:46:33 10° ESE daylight
01 Feb - 10:56:22 10° WSW 11:00:02 15° SW 11:02:53 10° S daylight
02 Feb - 01:39:43 10° S 01:54:36 25° SSE 02:06:31 10° E visible
02 Feb - 04:00:45 10° SW 04:18:41 47° SSE 04:29:14 10° E visible
02 Feb - 06:26:43 10° WSW 06:41:17 61° S 06:49:01 10° E visible
02 Feb - 08:52:50 10° W 09:02:02 42° SSW 09:07:31 10° SE daylight
03 Feb - 01:59:10 10° SSW 02:16:23 31° SSE 02:29:02 10° E visible
03 Feb - 04:22:04 10° SW 04:40:21 54° SSE 04:50:42 10° E visible
03 Feb - 06:48:40 10° W 07:02:46 61° S 07:10:15 10° ESE daylight
03 Feb - 09:14:50 10° W 09:23:09 34° SSW 09:28:19 10° SE daylight
04 Feb - 00:03:56 10° SSE 00:13:19 15° SE 00:23:38 10° ESE visible
04 Feb - 02:19:17 10° SSW 02:38:08 38° SSE 02:51:05 10° E visible
04 Feb - 04:43:39 10° WSW 05:02:00 59° S 05:12:06 10° E visible
04 Feb - 07:10:41 10° W 07:24:11 59° S 07:31:25 10° ESE daylight
04 Feb - 09:36:58 10° W 09:44:08 26° SW 09:48:52 10° SSE daylight
05 Feb - 00:21:05 10° S 00:35:06 21° SE 00:48:10 10° E visible
05 Feb - 02:39:56 10° SW 02:59:52 46° SSE 03:12:52 10° E visible
05 Feb - 05:05:28 10° WSW 05:23:38 63° S 05:33:27 10° E visible
05 Feb - 07:32:43 10° W 07:45:33 54° SSW 07:52:31 10° ESE daylight
05 Feb - 09:59:26 10° W 10:05:02 19° SW 10:08:58 10° S daylight
06 Feb - 00:39:52 10° SSW 00:56:50 28° SE 01:11:17 10° E visible
06 Feb - 03:00:58 10° SW 03:21:35 52° SSE 03:34:29 10° E visible
06 Feb - 05:27:26 10° WSW 05:45:14 66° S 05:54:44 10° E visible
06 Feb - 07:54:46 10° W 08:06:48 47° SSW 08:13:29 10° SE daylight
06 Feb - 10:22:51 10° WSW 10:25:49 12° SW 10:28:01 10° SSW daylight
06 Feb - 22:50:07 10° SE 22:53:37 11° SE 23:00:08 10° ESE night (unlit)
07 Feb - 00:59:30 10° SSW 01:18:33 35° SSE 01:33:42 10° E visible
07 Feb - 03:22:20 10° SW 03:43:19 59° SSE 03:55:59 10° E visible
07 Feb - 05:49:29 10° W 06:06:49 65° S 06:16:00 10° ESE visible
07 Feb - 08:16:53 10° W 08:27:54 39° SSW 08:34:17 10° SE daylight
07 Feb - 23:04:03 10° SSE 23:15:20 17° SE 23:28:00 10° E visible
08 Feb - 01:19:44 10° SSW 01:40:15 42° SSE 01:55:44 10° E visible
08 Feb - 03:43:59 10° WSW 04:05:03 64° S 04:17:25 10° E visible
08 Feb - 06:11:36 10° W 06:28:19 63° SSW 06:37:12 10° ESE visible
08 Feb - 08:39:07 10° W 08:48:53 30° SW 08:54:50 10° SSE daylight
08 Feb - 23:21:47 10° S 23:36:56 24° SE 23:52:11 10° E visible
09 Feb - 01:40:26 10° SW 02:01:59 50° SSE 02:17:33 10° E visible
09 Feb - 04:05:49 10° WSW 04:26:46 67° S 04:38:48 10° E visible
09 Feb - 06:33:44 10° W 06:49:44 58° SSW 06:58:17 10° ESE visible
09 Feb - 09:01:36 10° W 09:09:45 23° SW 09:15:01 10° S daylight
09 Feb - 23:40:47 10° SSW 23:58:31 31° SE 00:15:12 10° E visible
10 Feb - 02:01:29 10° SW 02:23:43 56° SSE 02:39:12 10° E visible
10 Feb - 04:27:49 10° WSW 04:48:30 69° S 05:00:09 10° E visible
10 Feb - 06:55:53 10° W 07:11:02 51° SSW 07:19:17 10° SE daylight
10 Feb - 09:24:43 10° W 09:30:30 16° SW 09:34:30 10° SSW daylight
10 Feb - 21:50:12 10° SE 21:55:36 12° SE 22:04:13 10° ESE night (unlit)
